Вернуться в каталог

ARIANE 42P DEB

АктивенLEO
NORAD 44509·DEBRIS·🇫🇷 France

Запущен Aug 10, 1992 с Guiana Space Centre

Loading…

Ближайшие Пролёты (ближайшие 24 часа)

TLE

СвежийSource: Space-Track

Эпоха: Sep 14, 2026, 13:01 UTC

1 44509U 92052G   26257.54239005  .00002041  00000-0  84106-2 0  9998
2 44509  66.0841  98.9268 0073080 235.3447 124.0668 12.85961127331441

Отслеживайте ARIANE 42P DEB в реальном времени с AllMySat

Download on the App Store